378  
ASUS44 KLUB 211410  
RWRLUB  
WEST TEXAS WEATHER ROUNDUP  
NATIONAL WEATHER SERVICE LUBBOCK TX  
900 AM CDT THU JUN 21 2018  
 
NOTE: "FAIR" INDICATES FEW OR NO CLOUDS BELOW 12,000 FEET WITH NO  
SIGNIFICANT WEATHER AND/OR S TO VISIBILITY
.  
 
TXZ004-006>008-010-012-014-016-OKZ002-211500-  
TEXAS PANHANDLE/OKLAHOMA PANHANDLE  
 
CITY SKY/WX TMP DP RH WIND PRES REMARKS
 
AMARILLO CLOUDY 70 62 76 NE6 30.15R  
BORGER PTSUNNY 70 59 68 NE5 30.13S  
CANADIAN MOSUNNY 70 61 74 CALM 30.09S  
DALHART CLOUDY 68 57 68 E7 30.18S  
DUMAS MOSUNNY 67 57 70 NE3 30.16S  
GUYMON PTSUNNY 71 57 61 N5 30.12S  
HEREFORD PTSUNNY 73 65 76 CALM 30.17R  
PAMPA CLOUDY 70 61 72 NE10 30.14R  
PERRYTON PTSUNNY 70 60 70 N6 30.11R  

 
 
TXZ026-029-035-045-048-211500-  
SOUTHERN PANHANDLE/SOUTH PLAINS/ROLLING PLAINS  
 
CITY SKY/WX TMP DP RH WIND PRES REMARKS
 
CHILDRESS SUNNY 78 66 66 N13 30.06R  
SEMINOLE SUNNY 76 64 65 SE6 30.12R  
LUBBOCK MOSUNNY 77 64 64 SE6 30.11R  
PLAINVIEW SUNNY 73 62 70 E6 30.11R  
SNYDER SUNNY 78 65 66 CALM 30.06R  

 
 
TXZ052-054-060>062-072-078-127-140-154-169-211500-  
PERMIAN BASIN/CONCHO VALLEY/BIG COUNTRY/EDWARDS PLATEAU  
 
CITY SKY/WX TMP DP RH WIND PRES REMARKS
 
ABILENE SUNNY 77 69 76 SW5 30.02R  
BIG SPRING SUNNY 77 66 67 CALM 30.09R  
BRADY CLOUDY 72 68 88 CALM 30.02R  
BROWNWOOD SUNNY 79 70 73 CALM 30.00R  
JUNCTION SUNNY 75 69 81 CALM 30.01R  
MIDLAND SUNNY 79 68 69 VRB3 30.07R  
ODESSA SUNNY 78 67 68 SE6 30.08R  
SAN ANGELO SUNNY 80 68 66 CALM 30.01R  
SONORA SUNNY 75 66 73 CALM 30.06R  
SWEETWATER SUNNY 80 67 64 CALM 30.07R  
WINK N/A 79 68 69 SE7 30.04R  

 
 
TXZ055-058-074-075-080-082-211500-  
FAR WEST/SOUTHWEST MOUNTAINS/TRANS PECOS  
 
CITY SKY/WX TMP DP RH WIND PRES REMARKS
 
ALPINE SUNNY 74 63 68 CALM 30.20R  
DRYDEN N/A 78 67 68 E6 30.01R  
EL PASO SUNNY 82 58 43 VRB3 30.06R  
FORT STOCKTON SUNNY 77 67 71 SE9 30.06R  
GUADALUPE PASS SUNNY 76 59 55 NE20 30.20R  
MARFA SUNNY 72 61 68 VRB3 30.19  
PECOS SUNNY 79 68 69 E7 30.04R  
PRESIDIO FAIR 82 65 56 N15G22 30.04R  

 
 
TXZ014-016-019-021>030-083-211500  
TEXAS TECH WEST TEXAS MESONET/TEXAS PANHANDLE/NORTHERN SOUTH PLAINS  
 
CITY SKY/WX TMP DP RH WIND PRES REMARKS
 
ABERNATHY 5ENE N/A 77 64 64 SE5 30.14S  
AMARILLO 9NNE N/A 71 62 74 CALM 30.15S  
AMARILLO 7SSE N/A 70 63 80 N6 30.18R  
AMHERST 1NE N/A 75 61 62 SE10 30.15S  
BOOTLEG 11WNW N/A 69 62 79 E3 30.23R  
CANADIAN 6E N/A 71 58 62 N3 30.09R  
CAPROCK CYN SP N/A 76 65 69 N3 30.11R  
CHILDRESS 2NNE N/A 75 65 71 N9 30.07R  
CLARENDON 2WSW N/A 73 62 67 NE7 30.12S  
CLAUDE 12SW N/A 72 62 72 N7 30.15S  
DIMMITT 2NE N/A 71 62 72 SE5 30.17S  
FLOYDADA 2NNE N/A 77 62 60 NE2 30.12S  
FRIONA 2NE N/A 69 63 80 E5 30.19S  
GOODLETT 3W N/A 80 63 57 N10 30.03S  
HART 3N N/A 74 62 67 E6 30.16R  
HEREFORD 2NW N/A 73 61 66 E5 30.20R  
MCLEAN 1E N/A 71 58 62 NE9 30.10S  
MEMPHIS 1NE N/A 75 62 64 N8 30.09R  
MULESHOE 2SSW N/A 75 61 61 SE13 30.16R  
OLTON 6S N/A 75 63 64 SE9 30.14S  
PALO DURO SP N/A 72 63 72 N7 30.17R  
PAMPA 2E N/A 68 60 75 N9 30.14S  
PLAINVIEW 1S N/A 75 65 70 E6 30.14R  
SILVERTON 7ESE N/A 78 61 56 SE3 30.11R  
TULIA 2ENE N/A 73 66 78 SE7 30.15S  
TURKEY 2WSW N/A 76 67 73 N6 30.10R  
UMBARGER 3NNE N/A 71 62 72 N8 30.19R  

 
 
TXZ033>036-039>041-045>048-211500  
TEXAS TECH WEST TEXAS MESONET/SOUTH PLAINS  
 
CITY SKY/WX TMP DP RH WIND PRES REMARKS
 
AIKEN 3WSW N/A 75 64 67 SE2 30.15R  
ANDREWS 2NE N/A 79 65 62 SE5 30.12R  
ANTON 6SSW N/A 76 64 67 E6 30.13S  
BROWNFIELD 2S N/A 76 62 61 E7 30.13R  
DENVR CTY 7WNW N/A 76 61 58 SE8 30.15R  
GAIL 2ESE N/A 80 62 55 N2 30.08R  
LAMESA 2SE N/A 79 66 66 E3 30.11R  
LUBBOCK 3WNW N/A 79 62 56 E3 30.13R  
MORTON 1ENE N/A 75 60 59 SE9 30.15S  
ODONNELL 1N N/A 77 61 57 E5 30.11R  
PLAINS 3N N/A 76 61 60 E8 30.15R  
RALLS 1SE N/A 79 62 56 E7 30.12S  
REESE CENTER N/A 77 62 61 SE5 30.14R  
SEAGRAVES 1SW N/A 77 63 62 E6 30.13R  
SEMINOLE 2NNE N/A 77 62 60 E7 30.12R  
SLATON 2NE N/A 77 63 60 E5 30.12R  
SNYDER 3E N/A 80 65 60 CALM 30.07R  
SUNDOWN 8SW N/A 77 61 58 E8 30.15R  
TAHOKA 3NNE N/A 79 63 57 SE5 30.12R  
WOLFFORTH 6SSW N/A 77 62 60 E7 30.13R  

 
 
TXZ031-032-036>038-042>044-211500-  
TEXAS TECH WEST TEXAS MESONET/ROLLING PLAINS  
 
CITY SKY/WX TMP DP RH WIND PRES REMARKS
 
ASPERMONT 3NE N/A 81 66 59 N3 30.03S  
FLUVANNA 3WNW N/A 79 61 55 N3 30.09R  
GRAHAM 5SSW N/A 78 63 60 NE3 30.10R  
GUTHRIE 10WSW N/A 81 63 54 N5 30.04R  
HASKELL 1NW N/A 81 66 59 SW5 30.02R  
JAYTON 1SSE N/A 79 64 58 NE5 30.04S  
KNOX CITY 3NW N/A 84 66 55 N2 30.02S  
LK A HENRY 1NW N/A 81 64 56 N1 30.07R  
NORTHFIELD 1S N/A 78 67 68 NW3 30.07R  
ODELL 4ENE N/A 80 66 63 N10 30.02S  
PADUCAH 10SW N/A 82 65 55 N3 30.05R  
POST 1NE N/A 80 62 53 NE1 30.08S  
RRING SPRGS 3N N/A 80 66 62 NE3 30.09R  
SEYMOUR 3NW N/A 83 68 60 W3 30.00S  
SPUR 1W N/A 80 63 55 E2 30.06R  
WEINERT 2NNE N/A 82 69 65 W5 30.02S  
WHITE RVR 6NE N/A 81 63 53 SE3 30.09R  

 
 
TXZ052-054-060>062-072-078-127-140-154-169-211500-  
TEXAS TECH WEST TEXAS MESONET/PERMIAN BASIN/  
CONCHO VALLEY/BIG COUNTRY/EDWARDS PLATEAU  
 
CITY SKY/WX TMP DP RH WIND PRES REMARKS
 
COYANOSA 2N N/A 80 68 67 E9 30.06R  
JUNCTION 1SSW N/A 76 69 78 NE5 30.03R  
MERTZON 3NNE N/A 80 68 66 SE1 30.05S  
SAN ANGELO 7NW N/A 81 66 60 NE2 30.03S  
STRLNG CT 4WSW N/A 81 67 62 E2 30.07R  
ST LAWRNCE 5SW N/A 79 65 63 S3 30.08R  
SWEETWATR 11SW N/A 82 68 63 E5 30.08R  
WALL 1E N/A 79 69 72 NW3 30.03S  

 
 
TXZ055-058-074-075-080-082-211500-  
TEXAS TECH WEST TEXAS MESONET/FAR WEST/SOUTHWEST MOUNTAINS/TRANS PECOS  
 
CITY SKY/WX TMP DP RH WIND PRES REMARKS
 
PRSMN GAP BBNP N/A 78 67 66 N8 30.06R  
GUADLPE MTN NP N/A 74 57 55 E5 30.24R  

 
 
 
CLICK HERE TO GO TO PREVIOUS BULLETINS.

The Nexlab TX Page Main Text Page